Time,TemperatureF,DewpointF,PressureIn,WindDirection,WindDirectionDegrees,WindSpeedMPH,WindSpeedGustMPH,Humidity,HourlyPrecipIn,Conditions,Clouds,dailyrainin,SoftwareType,DateUTC
2013-10-29 00:09:00,36.9,30.0,30.42,East,90,0.0,6.0,75,0.00,,,0.00,weatherlink.com 1.10,2013-10-29 05:09:00,
2013-10-29 00:24:00,36.9,30.0,30.42,ENE,66,0.0,9.0,76,0.00,,,0.00,weatherlink.com 1.10,2013-10-29 05:24:00,
2013-10-29 00:39:00,36.9,30.0,30.41,East,101,2.0,8.0,76,0.00,,,0.00,weatherlink.com 1.10,2013-10-29 05:39:00,
2013-10-29 00:54:00,36.9,30.0,30.41,East,100,0.0,7.0,77,0.00,,,0.00,weatherlink.com 1.10,2013-10-29 05:54:00,
2013-10-29 01:09:00,37.0,30.0,30.42,NNE,22,1.0,5.0,77,0.00,,,0.00,weatherlink.com 1.10,2013-10-29 06:09:00,
2013-10-29 01:24:00,37.1,31.0,30.42,ESE,108,2.0,7.0,77,0.00,,,0.00,weatherlink.com 1.10,2013-10-29 06:24:00,
2013-10-29 01:39:00,37.2,31.0,30.43,NE,43,0.0,7.0,78,0.00,,,0.00,weatherlink.com 1.10,2013-10-29 06:39:00,
2013-10-29 01:54:00,37.2,31.0,30.42,East,81,1.0,8.0,78,0.00,,,0.00,weatherlink.com 1.10,2013-10-29 06:54:00,
2013-10-29 02:09:00,37.2,31.0,30.42,East,83,3.0,7.0,78,0.00,,,0.00,weatherlink.com 1.10,2013-10-29 07:09:00,
2013-10-29 02:24:00,37.1,31.0,30.42,SSW,198,0.0,9.0,79,0.00,,,0.00,weatherlink.com 1.10,2013-10-29 07:24:00,
2013-10-29 02:39:00,36.9,31.0,30.43,NE,36,0.0,3.0,79,0.00,,,0.00,weatherlink.com 1.10,2013-10-29 07:39:00,
2013-10-29 02:54:00,36.7,31.0,30.42,North,351,1.0,8.0,80,0.00,,,0.00,weatherlink.com 1.10,2013-10-29 07:54:00,
2013-10-29 03:09:00,36.6,31.0,30.42,ENE,76,0.0,6.0,81,0.00,,,0.00,weatherlink.com 1.10,2013-10-29 08:09:00,
2013-10-29 03:24:00,36.4,31.0,30.42,East,85,0.0,5.0,81,0.00,,,0.00,weatherlink.com 1.10,2013-10-29 08:24:00,
2013-10-29 03:39:00,35.9,31.0,30.41,ENE,68,0.0,2.0,83,0.00,,,0.00,weatherlink.com 1.10,2013-10-29 08:39:00,
2013-10-29 03:54:00,35.4,31.0,30.42,NE,38,1.0,5.0,84,0.00,,,0.00,weatherlink.com 1.10,2013-10-29 08:54:00,
2013-10-29 04:09:00,35.0,31.0,30.41,ENE,62,0.0,1.0,85,0.00,,,0.00,weatherlink.com 1.10,2013-10-29 09:09:00,
2013-10-29 04:24:00,34.3,31.0,30.41,NNE,20,0.0,2.0,86,0.00,,,0.00,weatherlink.com 1.10,2013-10-29 09:24:00,
2013-10-29 04:39:00,33.8,30.0,30.41,NNE,31,0.0,1.0,87,0.00,,,0.00,weatherlink.com 1.10,2013-10-29 09:39:00,
2013-10-29 04:54:00,33.7,30.0,30.41,NNE,31,0.0,1.0,87,0.00,,,0.00,weatherlink.com 1.10,2013-10-29 09:54:00,
2013-10-29 05:09:00,33.7,31.0,30.41,East,90,0.0,3.0,88,0.00,,,0.00,weatherlink.com 1.10,2013-10-29 10:09:00,
2013-10-29 05:24:00,34.1,31.0,30.41,NE,44,0.0,7.0,88,0.00,,,0.00,weatherlink.com 1.10,2013-10-29 10:24:00,
2013-10-29 05:39:00,34.2,31.0,30.41,East,93,0.0,4.0,88,0.00,,,0.00,weatherlink.com 1.10,2013-10-29 10:39:00,
2013-10-29 05:54:00,34.4,31.0,30.41,East,79,0.0,3.0,88,0.00,,,0.00,weatherlink.com 1.10,2013-10-29 10:54:00,
2013-10-29 06:09:00,34.5,31.0,30.41,NNE,22,0.0,5.0,88,0.00,,,0.00,weatherlink.com 1.10,2013-10-29 11:09:00,
2013-10-29 06:24:00,34.8,32.0,30.40,ENE,75,0.0,7.0,88,0.00,,,0.00,weatherlink.com 1.10,2013-10-29 11:24:00,
2013-10-29 06:40:00,35.1,32.0,30.39,East,84,3.0,9.0,88,0.00,,,0.00,weatherlink.com 1.10,2013-10-29 11:40:00,
2013-10-29 06:55:00,35.0,32.0,30.38,ENE,63,7.0,10.0,88,0.00,,,0.00,weatherlink.com 1.10,2013-10-29 11:55:00,
2013-10-29 07:10:00,34.8,32.0,30.39,East,88,0.0,6.0,88,0.00,,,0.00,weatherlink.com 1.10,2013-10-29 12:10:00,
2013-10-29 07:25:00,34.7,32.0,30.39,East,96,0.0,5.0,89,0.00,,,0.00,weatherlink.com 1.10,2013-10-29 12:25:00,
2013-10-29 07:40:00,34.8,32.0,30.39,ENE,59,0.0,5.0,90,0.00,,,0.00,weatherlink.com 1.10,2013-10-29 12:40:00,
2013-10-29 07:55:00,34.4,32.0,30.39,ESE,105,0.0,2.0,90,0.00,,,0.00,weatherlink.com 1.10,2013-10-29 12:55:00,
2013-10-29 08:10:00,34.5,32.0,30.39,East,90,0.0,3.0,91,0.00,,,0.00,weatherlink.com 1.10,2013-10-29 13:10:00,
2013-10-29 08:25:00,35.2,33.0,30.40,East,97,0.0,4.0,91,0.00,,,0.00,weatherlink.com 1.10,2013-10-29 13:25:00,
2013-10-29 08:40:00,36.5,34.0,30.40,NE,43,0.0,6.0,91,0.00,,,0.00,weatherlink.com 1.10,2013-10-29 13:40:00,
2013-10-29 08:55:00,38.6,36.0,30.39,East,90,7.0,9.0,89,0.00,,,0.00,weatherlink.com 1.10,2013-10-29 13:55:00,
2013-10-29 09:10:00,39.6,36.0,30.39,ESE,115,2.0,14.0,88,0.00,,,0.00,weatherlink.com 1.10,2013-10-29 14:10:00,
2013-10-29 09:25:00,39.7,37.0,30.38,East,92,5.0,10.0,88,0.00,,,0.00,weatherlink.com 1.10,2013-10-29 14:25:00,
2013-10-29 09:40:00,40.5,37.0,30.38,SE,129,0.0,8.0,88,0.00,,,0.00,weatherlink.com 1.10,2013-10-29 14:40:00,
2013-10-29 09:55:00,41.3,38.0,30.38,SE,128,4.0,11.0,89,0.00,,,0.00,weatherlink.com 1.10,2013-10-29 14:55:00,
2013-10-29 10:10:00,42.2,39.0,30.37,East,95,1.0,13.0,88,0.00,,,0.00,weatherlink.com 1.10,2013-10-29 15:10:00,
2013-10-29 10:25:00,42.7,39.0,30.37,ESE,115,0.0,9.0,88,0.00,,,0.00,weatherlink.com 1.10,2013-10-29 15:25:00,
2013-10-29 10:40:00,43.1,40.0,30.36,SSE,147,1.0,12.0,87,0.00,,,0.00,weatherlink.com 1.10,2013-10-29 15:40:00,
2013-10-29 10:55:00,44.1,40.0,30.36,ESE,121,0.0,16.0,85,0.00,,,0.00,weatherlink.com 1.10,2013-10-29 15:55:00,
2013-10-29 11:10:00,44.4,40.0,30.36,SE,140,0.0,11.0,84,0.00,,,0.00,weatherlink.com 1.10,2013-10-29 16:10:00,
2013-10-29 11:25:00,45.3,40.0,30.36,SE,140,0.0,9.0,83,0.00,,,0.00,weatherlink.com 1.10,2013-10-29 16:25:00,
2013-10-29 11:40:00,46.2,40.0,30.35,SSE,155,1.0,5.0,80,0.00,,,0.00,weatherlink.com 1.10,2013-10-29 16:40:00,
2013-10-29 11:55:00,46.9,41.0,30.34,South,186,2.0,5.0,80,0.00,,,0.00,weatherlink.com 1.10,2013-10-29 16:55:00,
2013-10-29 12:10:00,48.1,41.0,30.34,SSE,157,0.0,8.0,76,0.00,,,0.00,weatherlink.com 1.10,2013-10-29 17:10:00,
2013-10-29 12:25:00,48.8,40.0,30.34,SSE,163,0.0,5.0,72,0.00,,,0.00,weatherlink.com 1.10,2013-10-29 17:25:00,
2013-10-29 12:40:00,49.1,40.0,30.32,ESE,117,0.0,9.0,72,0.00,,,0.00,weatherlink.com 1.10,2013-10-29 17:40:00,
2013-10-29 12:55:00,49.7,40.0,30.31,ESE,106,0.0,7.0,70,0.00,,,0.00,weatherlink.com 1.10,2013-10-29 17:55:00,
2013-10-29 13:11:00,50.6,41.0,30.30,SSE,163,0.0,7.0,69,0.00,,,0.00,weatherlink.com 1.10,2013-10-29 18:11:00,
2013-10-29 13:26:00,52.3,41.0,30.30,SE,127,0.0,7.0,65,0.00,,,0.00,weatherlink.com 1.10,2013-10-29 18:26:00,
2013-10-29 13:41:00,53.8,40.0,30.29,SE,146,4.0,7.0,61,0.00,,,0.00,weatherlink.com 1.10,2013-10-29 18:41:00,
2013-10-29 13:56:00,54.7,41.0,30.27,SE,129,0.0,7.0,60,0.00,,,0.00,weatherlink.com 1.10,2013-10-29 18:56:00,
2013-10-29 14:11:00,55.6,40.0,30.26,South,169,2.0,9.0,56,0.00,,,0.00,weatherlink.com 1.10,2013-10-29 19:11:00,
2013-10-29 14:26:00,55.9,39.0,30.25,South,186,2.0,8.0,54,0.00,,,0.00,weatherlink.com 1.10,2013-10-29 19:26:00,
2013-10-29 14:41:00,57.0,39.0,30.24,SE,144,3.0,7.0,52,0.00,,,0.00,weatherlink.com 1.10,2013-10-29 19:41:00,
2013-10-29 14:56:00,57.3,38.0,30.24,SSE,161,0.0,6.0,49,0.00,,,0.00,weatherlink.com 1.10,2013-10-29 19:56:00,
2013-10-29 15:11:00,57.7,38.0,30.24,SSE,155,2.0,5.0,48,0.00,,,0.00,weatherlink.com 1.10,2013-10-29 20:11:00,
2013-10-29 15:26:00,57.4,38.0,30.23,SE,128,1.0,11.0,49,0.00,,,0.00,weatherlink.com 1.10,2013-10-29 20:26:00,
2013-10-29 15:41:00,57.2,37.0,30.22,SSE,153,0.0,5.0,48,0.00,,,0.00,weatherlink.com 1.10,2013-10-29 20:41:00,
2013-10-29 15:56:00,57.0,38.0,30.22,ESE,122,0.0,5.0,49,0.00,,,0.00,weatherlink.com 1.10,2013-10-29 20:56:00,
2013-10-29 16:11:00,57.3,38.0,30.21,ESE,122,2.0,7.0,49,0.00,,,0.00,weatherlink.com 1.10,2013-10-29 21:11:00,
2013-10-29 16:26:00,57.8,38.0,30.21,ESE,115,0.0,8.0,48,0.00,,,0.00,weatherlink.com 1.10,2013-10-29 21:26:00,
2013-10-29 16:41:00,57.5,37.0,30.21,South,188,0.0,5.0,46,0.00,,,0.00,weatherlink.com 1.10,2013-10-29 21:41:00,
2013-10-29 16:56:00,57.3,36.0,30.21,South,185,1.0,4.0,45,0.00,,,0.00,weatherlink.com 1.10,2013-10-29 21:56:00,
2013-10-29 17:11:00,56.1,36.0,30.20,South,173,0.0,2.0,47,0.00,,,0.00,weatherlink.com 1.10,2013-10-29 22:11:00,
2013-10-29 17:26:00,54.8,36.0,30.20,South,171,0.0,0.0,49,0.00,,,0.00,weatherlink.com 1.10,2013-10-29 22:26:00,
2013-10-29 17:41:00,54.1,36.0,30.21,SSE,157,0.0,1.0,50,0.00,,,0.00,weatherlink.com 1.10,2013-10-29 22:41:00,
2013-10-29 17:56:00,53.7,36.0,30.20,South,171,0.0,2.0,52,0.00,,,0.00,weatherlink.com 1.10,2013-10-29 22:56:00,
2013-10-29 18:11:00,52.8,36.0,30.21,South,170,0.0,0.0,54,0.00,,,0.00,weatherlink.com 1.10,2013-10-29 23:11:00,
2013-10-29 18:26:00,52.7,37.0,30.21,SSE,163,0.0,2.0,56,0.00,,,0.00,weatherlink.com 1.10,2013-10-29 23:26:00,
2013-10-29 18:41:00,52.5,37.0,30.21,SSE,167,0.0,2.0,57,0.00,,,0.00,weatherlink.com 1.10,2013-10-29 23:41:00,
2013-10-29 18:56:00,52.4,37.0,30.21,SSE,161,0.0,3.0,57,0.00,,,0.00,weatherlink.com 1.10,2013-10-29 23:56:00,
2013-10-29 19:11:00,52.2,38.0,30.22,SE,127,0.0,8.0,59,0.00,,,0.00,weatherlink.com 1.10,2013-10-30 00:11:00,
2013-10-29 19:26:00,52.1,38.0,30.21,ESE,105,0.0,6.0,59,0.00,,,0.00,weatherlink.com 1.10,2013-10-30 00:26:00,
2013-10-29 19:41:00,51.8,38.0,30.21,SSE,148,0.0,4.0,60,0.00,,,0.00,weatherlink.com 1.10,2013-10-30 00:41:00,
2013-10-29 19:56:00,51.6,38.0,30.20,SE,141,2.0,4.0,61,0.00,,,0.00,weatherlink.com 1.10,2013-10-30 00:56:00,
2013-10-29 20:11:00,51.3,39.0,30.20,South,175,0.0,5.0,62,0.00,,,0.00,weatherlink.com 1.10,2013-10-30 01:11:00,
2013-10-29 20:26:00,51.0,39.0,30.20,ESE,107,0.0,7.0,64,0.00,,,0.00,weatherlink.com 1.10,2013-10-30 01:26:00,
2013-10-29 20:41:00,50.8,39.0,30.20,SSE,162,0.0,6.0,65,0.00,,,0.00,weatherlink.com 1.10,2013-10-30 01:41:00,
2013-10-29 20:56:00,50.5,39.0,30.19,SE,144,0.0,5.0,66,0.00,,,0.00,weatherlink.com 1.10,2013-10-30 01:56:00,
2013-10-29 21:11:00,50.2,40.0,30.19,SSE,161,0.0,5.0,68,0.00,,,0.00,weatherlink.com 1.10,2013-10-30 02:11:00,
2013-10-29 21:26:00,50.2,40.0,30.20,East,101,0.0,5.0,69,0.00,,,0.00,weatherlink.com 1.10,2013-10-30 02:26:00,
2013-10-29 21:41:00,50.1,40.0,30.20,ESE,109,0.0,3.0,69,0.00,,,0.00,weatherlink.com 1.10,2013-10-30 02:41:00,
2013-10-29 21:56:00,49.9,40.0,30.20,ESE,105,2.0,5.0,70,0.00,,,0.00,weatherlink.com 1.10,2013-10-30 02:56:00,
2013-10-29 22:11:00,49.7,40.0,30.20,ESE,104,0.0,4.0,70,0.00,,,0.00,weatherlink.com 1.10,2013-10-30 03:11:00,
2013-10-29 22:26:00,49.6,40.0,30.19,ESE,123,0.0,5.0,70,0.00,,,0.00,weatherlink.com 1.10,2013-10-30 03:26:00,
2013-10-29 22:41:00,49.6,41.0,30.20,ESE,113,0.0,5.0,71,0.00,,,0.00,weatherlink.com 1.10,2013-10-30 03:41:00,
2013-10-29 22:56:00,49.5,41.0,30.19,ESE,113,0.0,1.0,72,0.00,,,0.00,weatherlink.com 1.10,2013-10-30 03:56:00,
2013-10-29 23:11:00,49.5,41.0,30.18,East,80,0.0,5.0,72,0.00,,,0.00,weatherlink.com 1.10,2013-10-30 04:11:00,
2013-10-29 23:26:00,49.5,41.0,30.18,SSE,156,0.0,4.0,72,0.00,,,0.00,weatherlink.com 1.10,2013-10-30 04:26:00,
2013-10-29 23:41:00,49.3,41.0,30.17,WSW,246,0.0,0.0,73,0.00,,,0.00,weatherlink.com 1.10,2013-10-30 04:41:00,
2013-10-29 23:56:00,49.0,41.0,30.16,SE,134,0.0,3.0,73,0.00,,,0.00,weatherlink.com 1.10,2013-10-30 04:56:00,